User: anonymous   Login
Location: Aufkirchen
(47.9603°N, 11.3653°E)
Time: 14:49:16
(UTC+02:00)
Language:

Transit 2A - Orbit

View from above orbital plane
View from above orbital plane
View from above satellite
View from above satellite

Ground track
Ground track

The orbit data is extracted from the following two-line orbital elements,

1 00045U 60007A   21131.66552838 -.00000081  00000-0  62800-5 0  9994
2 00045  66.6949 235.9573 0247928  76.2779 286.5786 14.33718892112883
Epoch (UTC): 11 May 2021 15:58:21
Eccentricity: 0.0247928
inclination: 66.6949°
perigee height: 602 km
apogee height: 957 km
right ascension of ascending node: 235.9573°
argument of perigee: 76.2779°
revolutions per day: 14.33718892
mean anomaly at epoch: 286.5786°
orbit number at epoch: 11288

The dashed part of the orbit path shows where the satellite is in the earth's shadow,  

DLR